Visibility
14.5 15.0 13.4 9.1 15.0 15.0 15.0 15.0 2.3 0.1 15.0 15.0 15.0 15.0 15.0 15.0 15.0 15.0 11.8 2.7 3.3 3.2 5.0 3.8 5.4 6.8 10.9 9.2 11.6 15.0 7.4 9.6 7.4 6.0 5.8 10.5 15.0 15.0
15.0 15.0 15.0 15.0 15.0 15.0 15.0 15.0 15.0 5.2 0.2 15.0 15.0 15.0 15.0 15.0 8.0 2.1 8.8 4.8 2.9 3.0 3.1 3.3 4.2 8.7 9.0 15.0 15.0 15.0 15.0 8.0 12.7 14.9 15.0 15.0 15.0 15.0
15.0 15.0 15.0 15.0 15.0 15.0 15.0 15.0 15.0 4.2 0.1 10.3 10.4 2.5 5.0 0.2 0.3 13.7 10.3 6.5 6.2 5.3 7.4 10.9 15.0 15.0 15.0 15.0 15.0 12.0 14.3 15.0 15.0 15.0 15.0 15.0 15.0 15.0
15.0 15.0 15.0 15.0 15.0 15.0 15.0 15.0 15.0 14.9 5.0 14.9 0.2 0.1 0.2 0.4 5.3 7.6 15.0 14.9 13.4 12.4 14.8 15.0 15.0 14.9 15.0 12.5 14.5 15.0 15.0 15.0 15.0 15.0 15.0 15.0 15.0 15.0
15.0 15.0 15.0 15.0 15.0 15.0 15.0 15.0 15.0 15.0 3.7 15.0 0.2 12.8 0.4 3.7 3.0 15.0 15.0 15.0 15.0 15.0 15.0 15.0 15.0 15.0 15.0 15.0 15.0 15.0 15.0 15.0 15.0 15.0 15.0 15.0 15.0 15.0
15.0 15.0 15.0 15.0 15.0 6.9 4.2 2.7 15.0 15.0 15.0 15.0 1.8 0.4 8.3 0.4 0.1 0.0 0.0 0.1 0.0 15.0 15.0 15.0 15.0 15.0 15.0 15.0 15.0 15.0 15.0 15.0 15.0 15.0 15.0 15.0 15.0 15.0
15.0 15.0 15.0 15.0 15.0 15.0 15.0 15.0 5.3 3.8 5.4 15.0 13.1 7.0 0.1 0.4 0.1 0.0 1.3 15.0 15.0 15.0 15.0 15.0 15.0 15.0 15.0 15.0 15.0 15.0 15.0 15.0 15.0 15.0 15.0 15.0 15.0 15.0
15.0 15.0 15.0 15.0 15.0 15.0 15.0 15.0 15.0 15.0 15.0 15.0 15.0 15.0 15.0 15.0 15.0 15.0 15.0 15.0 15.0 15.0 15.0 15.0 15.0 15.0 15.0 15.0 15.0 15.0 15.0 15.0 15.0 15.0 15.0 15.0 15.0 15.0
15.0 15.0 15.0 15.0 15.0 15.0 15.0 15.0 15.0 15.0 15.0 15.0 15.0 15.0 15.0 15.0 15.0 15.0 15.0 15.0 15.0 15.0 15.0 15.0 15.0 15.0 15.0 15.0 15.0 15.0 15.0 15.0 15.0 15.0 15.0 15.0 15.0 15.0
15.0 15.0 15.0 15.0 15.0 15.0 15.0 15.0 15.0 15.0 15.0 15.0 15.0 15.0 15.0 15.0 15.0 15.0 15.0 15.0 15.0 15.0 15.0 6.3 15.0 15.0 15.0 15.0 15.0 15.0 15.0 15.0 15.0 15.0 15.0 15.0 15.0 15.0
15.0 15.0 15.0 15.0 15.0 15.0 15.0 15.0 15.0 15.0 15.0 15.0 15.0 15.0 15.0 15.0 15.0 15.0 14.6 8.0 9.9 15.0 15.0 9.7 15.0 12.5 15.0 15.0 15.0 15.0 15.0 15.0 15.0 15.0 15.0 15.0 15.0 15.0
15.0 15.0 15.0 15.0 15.0 15.0 15.0 15.0 15.0 15.0 15.0 15.0 15.0 15.0 15.0 15.0 15.0 15.0 15.0 4.1 4.1 15.0 15.0 8.2 7.7 10.2 6.8 15.0 14.9 15.0 15.0 15.0 15.0 15.0 15.0 15.0 15.0 15.0
15.0 15.0 15.0 15.0 15.0 15.0 15.0 15.0 15.0 15.0 15.0 15.0 15.0 15.0 15.0 15.0 15.0 15.0 15.0 15.0 5.6 8.0 15.0 9.7 2.5 14.3 6.9 11.8 15.0 13.1 15.0 15.0 15.0 15.0 15.0 15.0 15.0 15.0
15.0 15.0 15.0 15.0 15.0 15.0 15.0 15.0 15.0 15.0 15.0 15.0 15.0 11.4 10.0 13.0 15.0 15.0 15.0 15.0 15.0 14.9 15.0 14.6 0.4 2.9 4.6 7.0 6.1 12.2 14.9 15.0 15.0 15.0 15.0 15.0 15.0 15.0
15.0 15.0 15.0 15.0 15.0 15.0 15.0 15.0 15.0 15.0 15.0 15.0 6.6 9.9 5.7 9.0 5.0 13.6 15.0 15.0 15.0 15.0 15.0 14.9 1.3 1.2 0.3 1.2 4.1 15.0 15.0 13.5 6.7 14.4 15.0 15.0 15.0 15.0
15.0 15.0 15.0 15.0 15.0 15.0 15.0 15.0 15.0 15.0 15.0 15.0 6.1 5.8 5.4 7.1 14.3 15.0 8.5 15.0 12.6 7.1 15.0 14.7 13.6 1.1 0.2 0.4 0.7 4.4 15.0 1.9 2.8 10.4 6.2 14.0 15.0 15.0
15.0 15.0 15.0 15.0 15.0 15.0 15.0 15.0 15.0 15.0 11.8 6.9 5.1 7.1 15.0 7.9 8.8 14.0 4.6 3.3 0.6 3.1 9.7 10.5 15.0 15.0 15.0 12.5 0.4 14.9 15.0 15.0 15.0 15.0 15.0 3.4 15.0 15.0
15.0 15.0 15.0 15.0 15.0 15.0 15.0 15.0 15.0 15.0 15.0 13.9 14.8 8.1 2.1 2.0 3.0 4.6 1.5 0.4 0.6 3.3 3.7 5.1 4.3 4.9 7.5 15.0 14.0 4.6 7.9 7.6 15.0 15.0 15.0 0.6 9.5 15.0
15.0 15.0 15.0 15.0 15.0 15.0 15.0 4.9 4.1 15.0 11.1 4.8 5.9 7.7 2.7 3.2 12.6 4.1 6.7 1.1 1.6 3.8 6.8 5.2 3.6 0.5 0.2 1.2 15.0 15.0 14.7 15.0 15.0 15.0 15.0 12.3 4.1 15.0
15.0 15.0 15.0 15.0 15.0 15.0 15.0 5.3 15.0 15.0 4.1 4.1 4.1 4.6 10.4 5.9 5.9 5.7 13.1 15.0 3.1 4.5 6.0 12.8 2.9 0.5 0.1 1.9 0.9 14.3 15.0 15.0 15.0 15.0 15.0 15.0 15.0 15.0
15.0 15.0 15.0 15.0 15.0 15.0 15.0 15.0 4.1 5.3 0.9 4.1 4.1 4.2 3.8 4.8 4.6 3.9 1.8 15.0 15.0 14.2 5.3 15.0 15.0 10.4 0.1 0.1 0.2 13.3 15.0 15.0 15.0 15.0 15.0 1.2 2.3 10.3
15.0 15.0 15.0 15.0 15.0 15.0 15.0 4.4 4.4 5.7 8.0 8.7 6.8 4.1 5.4 4.1 4.0 5.2 5.8 4.0 6.6 4.6 2.2 15.0 15.0 8.5 0.2 0.2 0.6 15.0 15.0 15.0 15.0 15.0 15.0 12.6 3.0 0.4
15.0 15.0 15.0 15.0 15.0 15.0 4.2 4.3 10.0 14.7 14.8 14.9 4.5 15.0 10.4 3.8 4.1 1.3 1.0 1.6 0.7 0.7 2.5 1.3 15.0 9.0 0.6 0.4 0.9 1.5 15.0 15.0 15.0 15.0 15.0 15.0 15.0 15.0